Content
SEND FEEDBACK

Daily
Averages
Monthly
Summary
United States of America

BOSTON, MASSACHUSETTS


Home > North America > United States > Massachusetts
Elevation: 4 feet     Latitude: 42 22N     Longitude: 071 02W

WEATHER
 
SELECT A DAY
Number of Records: 202,578;   Date Range: 1/1/95 - 7/27/14
 
SHARE

PRINT THIS DATA

[ ← Previous Day ]
WEATHER ALMANAC - JUNE 19, 2013
[ Next Day → ]
[ °C ]   °F
Weather ElementAverageHighLow
Temperature64 °F70 °F (10:54 am)57.9 °F (2:54 am)
Dewpoint51.9 °F55.4 °F (1:20 am)48 °F (10:54 am)
Humidity66 %88 % (1:20 am)46 % (10:54 am)
Barometer30.01 in30.15 in (11:54 pm)29.91 in (3:54 am)
Wind Speed10.1 mph15 mph (1:54 pm)
Weather ElementAverage
Visibility9.6 mi
Wind DirectionSSE (148.1 °)

Weather ElementTotal
Precipitation---
Heating Degree Days1.1 (Base 65)
Growing Degree Days14 (Base 50)
Averaged from 26 records on June 19, 2013
WEATHER CONDITIONS BREAKOUT
WIND DIRECTION BREAKOUT
WEATHER BY HOUR - JUNE 19, 2013
[ °C ]   °F
Local TimeTemperatureDewpointHumidityBarometerVisibilityWind DirectionWind SpeedGust SpeedPrecipitationEventsConditions
1:20 AM59.0 °F55.4 °F88 %29.92 in10.0 miNorth (350°)9.2 mphOvercast
1:54 AM59.0 °F55.0 °F87 %29.92 in10.0 miNorth (350°)10.4 mphOvercast
2:54 AM57.9 °F54.0 °F87 %29.92 in10.0 miNorth (10°)10.4 mphOvercast
3:54 AM57.9 °F54.0 °F87 %29.91 in10.0 miNorth (350°)9.2 mphMostly Cloudy
4:54 AM57.9 °F53.1 °F84 %29.92 in10.0 miNorth (10°)8.1 mphMostly Cloudy
5:54 AM57.9 °F54.0 °F87 %29.92 in10.0 miNorth (350°)8.1 mphScattered Clouds
6:54 AM61.0 °F55.0 °F81 %29.94 in10.0 miNNW (340°)8.1 mphScattered Clouds
7:54 AM63.0 °F54.0 °F72 %29.96 in10.0 miNorth (10°)11.5 mphMostly Cloudy
8:54 AM64.9 °F55.0 °F70 %29.98 in10.0 miNorth (10°)12.7 mphMostly Cloudy
9:54 AM68.0 °F48.9 °F50 %29.99 in10.0 miNorth (10°)12.7 mphScattered Clouds
10:54 AM70.0 °F48.0 °F46 %30.01 in10.0 miNE (40°)11.5 mphScattered Clouds
11:54 AM68.0 °F53.1 °F59 %30.01 in10.0 miEast (80°)13.8 mphScattered Clouds
12:54 PM69.1 °F51.1 °F53 %30.01 in10.0 miEast (80°)12.7 mphScattered Clouds
1:54 PM68.0 °F53.1 °F59 %30.02 in10.0 miEast (90°)15.0 mphScattered Clouds
2:54 PM66.0 °F52.0 °F60 %30.03 in10.0 miSE (130°)11.5 mphPartly Cloudy
3:54 PM64.9 °F51.1 °F61 %30.04 in10.0 miSE (130°)11.5 mphPartly Cloudy
4:54 PM66.9 °F50.0 °F54 %30.05 in10.0 miSE (130°)9.2 mphPartly Cloudy
5:54 PM68.0 °F48.0 °F49 %30.04 in10.0 miESE (110°)12.7 mphPartly Cloudy
6:29 PM66.2 °F50.0 °F56 %30.05 in1.8 miESE (120°)9.2 mphHaze
6:31 PM66.2 °F50.0 °F56 %30.05 in10.0 miESE (120°)10.4 mphPartly Cloudy
6:54 PM66.0 °F51.1 °F59 %30.06 in10.0 miSE (130°)9.2 mphPartly Cloudy
7:54 PM64.9 °F50.0 °F58 %30.07 in9.0 miSE (140°)6.9 mphPartly Cloudy
8:54 PM64.0 °F51.1 °F63 %30.09 in10.0 miSSE (150°)6.9 mphScattered Clouds
9:54 PM63.0 °F50.0 °F63 %30.13 in10.0 miSouth (180°)5.8 mphMostly Cloudy
10:54 PM63.0 °F50.0 °F63 %30.14 in10.0 miSSW (200°)8.1 mphScattered Clouds
11:54 PM63.0 °F51.1 °F65 %30.15 in10.0 miSW (230°)8.1 mphPartly Cloudy
Hourly data recorded from KBOS, located miles away from Boston, Massachusetts







STORIES FROM OUR PARTNERS